Wind_Speed
45 46 46 45 45 44 44 44 44 45 45 46 46 46 46 45 44 44 43 42 42 41 41 42 43 43 43 44 43 44 46 47 47 47 46 46 46 45
44 43 43 44 43 42 42 42 42 43 43 43 44 44 42 42 44 44 42 41 41 41 42 42 42 43 43 43 43 44 46 47 47 47 46 45 45 45
42 42 41 42 42 40 40 41 42 43 43 42 42 42 41 41 41 41 42 41 40 41 42 41 42 43 43 43 43 45 46 46 46 45 44 44 44 44
40 39 39 40 41 40 40 40 40 41 41 40 40 41 41 40 40 40 41 40 40 40 41 40 41 41 42 43 43 44 45 45 44 43 42 42 43 43
38 38 38 38 39 40 41 41 41 41 41 40 39 40 39 38 39 40 41 41 40 39 40 40 40 41 42 42 43 43 43 42 42 42 41 41 42 42
36 37 36 37 38 40 40 40 40 40 40 40 39 38 37 36 38 40 41 41 39 40 40 40 40 40 41 41 41 41 41 41 40 40 39 39 40 41
34 35 36 36 37 38 38 38 38 38 39 39 38 37 36 37 38 39 40 39 38 39 39 38 38 39 39 39 39 39 39 38 38 37 37 38 39 40
33 33 34 34 35 36 37 37 36 37 36 36 37 38 38 38 38 39 38 38 37 37 37 37 37 38 38 37 37 37 36 37 36 36 36 37 38 39
31 31 32 33 34 36 36 35 36 36 36 36 36 37 37 37 37 37 38 38 36 35 36 35 36 36 35 35 35 36 35 35 34 34 34 36 37 38
30 30 31 32 33 34 34 35 35 35 34 34 35 36 36 35 35 36 36 37 35 34 35 34 33 33 33 34 34 34 34 33 33 32 33 34 36 36
29 29 30 30 32 33 32 33 32 32 34 34 35 36 35 35 34 34 34 33 32 31 31 31 31 31 32 32 33 33 33 32 32 31 31 33 34 34
27 28 28 29 30 30 30 30 31 31 31 31 32 33 33 33 33 32 31 31 30 30 29 29 30 31 31 31 32 32 31 30 30 29 30 32 33 33
26 27 27 28 28 27 28 29 29 30 30 29 29 31 32 32 31 31 29 29 28 29 29 29 28 29 30 30 29 29 28 27 27 27 28 29 30 30
25 25 26 27 27 27 28 28 27 27 28 28 29 30 30 29 29 30 29 27 27 27 28 28 28 28 28 27 27 27 26 25 25 25 26 28 29 29
24 24 25 25 25 26 26 27 27 26 26 27 28 29 28 28 27 28 28 27 26 26 26 27 27 27 27 26 25 24 24 22 22 23 25 26 27 27
22 23 24 24 25 25 25 25 25 25 26 26 26 26 26 26 26 26 26 26 26 25 25 25 24 24 25 24 22 21 20 20 21 22 24 25 25 26
23 23 23 23 23 24 24 24 25 24 24 24 24 24 24 25 26 26 25 24 24 24 24 23 23 23 23 21 19 19 18 19 20 22 22 23 23 23
23 23 22 22 22 23 23 24 24 23 23 22 22 23 24 24 24 23 23 23 23 23 23 22 21 20 18 17 17 18 18 18 19 20 20 21 21 21
23 22 22 22 22 21 22 22 22 22 21 21 21 21 22 22 21 21 21 21 21 21 20 19 18 16 16 15 16 16 17 17 17 17 18 18 19 19
22 22 21 21 21 21 21 21 21 21 21 20 20 20 19 19 19 20 20 20 19 18 17 17 16 15 14 13 14 14 14 14 15 15 16 17 17 17
22 22 21 21 21 21 20 20 20 19 19 18 18 18 18 17 17 18 18 18 17 15 15 14 14 13 13 12 12 11 12 12 13 14 15 16 16 16
21 21 20 20 20 20 19 18 18 18 17 16 16 16 16 16 16 16 16 16 15 14 13 13 13 12 11 10 10 9 10 11 12 13 13 13 13 13
20 19 19 19 18 18 18 18 17 17 15 15 15 15 15 15 15 15 15 14 13 13 13 13 12 11 10 9 9 8 9 10 11 12 11 11 12 12
Wind_Direction
257 257 256 256 257 258 259 260 261 261 259 257 257 258 260 262 264 265 267 269 272 276 278 281 285 289 292 294 298 301 304 305 307 307 308 309 311 312
258 256 255 257 257 257 258 258 260 261 259 257 256 257 260 262 263 264 265 266 271 275 277 280 284 288 292 294 297 300 303 306 307 307 308 310 311 312
257 256 258 257 256 255 256 257 259 260 259 258 256 256 259 260 262 264 265 266 269 274 277 282 284 288 291 294 296 299 302 305 306 307 308 309 310 312
256 257 259 257 255 255 256 256 258 260 260 259 256 256 258 259 260 263 264 266 269 272 276 279 283 287 291 294 297 299 301 304 307 308 308 309 311 313
256 256 259 257 257 256 256 256 258 259 259 259 257 257 259 260 260 261 262 265 269 273 275 278 282 286 289 294 297 300 303 305 306 307 308 310 312 314
257 257 259 260 258 255 255 256 258 257 258 259 257 258 259 260 262 262 262 265 267 272 274 277 281 284 288 293 298 300 302 304 306 307 309 311 313 315
258 258 259 259 257 254 254 255 256 256 258 259 258 259 258 260 262 262 263 265 266 270 273 275 279 283 287 292 296 299 301 303 305 307 309 311 314 316
258 260 259 257 255 253 253 254 255 257 258 260 258 258 256 258 260 261 263 266 267 269 271 274 279 282 287 292 295 298 300 302 305 307 309 312 315 317
259 259 259 258 255 252 252 252 254 257 259 260 260 258 258 258 260 262 264 267 268 269 270 273 277 282 287 290 294 298 301 303 305 307 310 313 316 318
260 258 258 257 255 253 253 253 254 256 256 258 259 258 259 260 262 264 265 266 266 268 271 274 276 281 286 290 294 297 301 303 304 307 310 313 317 319
260 259 259 257 255 254 255 255 254 254 255 258 259 257 258 259 263 266 266 266 268 269 271 273 276 282 286 289 293 297 300 301 303 306 309 313 317 319
262 261 261 259 257 255 256 254 252 253 255 257 258 258 258 261 264 266 268 267 268 268 269 273 277 283 287 289 292 295 297 300 303 306 311 314 317 320
263 263 261 259 256 255 256 255 252 252 254 254 255 258 259 263 265 265 268 268 268 269 269 273 279 284 286 289 292 294 296 300 302 305 311 315 318 320
264 262 259 258 257 257 255 253 251 254 255 254 255 257 260 263 264 264 266 265 267 269 271 274 278 281 283 287 290 293 296 299 301 306 312 315 319 321
267 263 259 256 258 259 255 252 252 254 254 255 257 259 262 264 264 263 263 265 266 268 271 273 276 279 281 286 290 293 296 297 300 307 312 315 319 321
266 263 261 260 261 259 254 251 252 253 255 258 259 259 261 262 263 263 264 264 265 266 268 270 273 277 281 286 290 293 294 297 301 307 311 315 319 323
268 264 261 262 262 259 254 251 250 252 255 257 257 257 259 260 263 264 265 265 266 268 268 270 273 278 280 283 287 290 294 297 301 307 312 316 320 324
267 265 264 263 262 258 255 251 248 251 254 254 256 257 260 261 263 265 266 264 264 267 268 270 272 275 278 281 284 290 293 297 302 308 314 318 321 324
266 265 263 260 256 255 254 253 251 252 252 253 255 258 260 263 265 264 263 263 263 263 266 268 269 270 276 281 286 290 293 298 304 311 315 319 323 328
266 265 261 258 255 254 255 254 253 252 252 253 255 257 258 261 262 261 261 261 260 260 262 264 265 267 275 281 286 291 296 302 308 313 318 324 328 333
266 264 260 256 254 253 253 253 253 252 251 253 253 254 254 256 258 257 255 256 255 256 257 259 262 266 270 277 285 292 298 305 310 316 323 329 333 336
264 261 257 255 253 250 248 248 250 249 248 246 248 250 250 253 256 253 250 248 249 250 250 253 259 264 268 278 285 292 299 308 315 320 328 333 336 339
259 255 252 251 248 245 243 244 246 247 244 241 244 248 250 253 252 247 244 243 244 244 246 252 257 264 266 271 280 290 297 308 318 324 329 335 341 345
Height
5619 5622 5626 5630 5632 5635 5638 5640 5643 5646 5651 5655 5658 5661 5664 5666 5669 5671 5672 5672 5672 5672 5671 5669 5667 5664 5661 5658 5653 5649 5644 5639 5633 5627 5621 5615 5609 5602
5607 5610 5614 5618 5620 5623 5626 5629 5631 5634 5638 5643 5646 5649 5652 5655 5657 5659 5660 5661 5661 5661 5660 5659 5657 5654 5652 5648 5644 5639 5635 5629 5623 5617 5611 5606 5600 5593
5596 5599 5603 5606 5608 5612 5615 5618 5620 5623 5627 5631 5634 5638 5641 5643 5645 5647 5649 5650 5651 5651 5650 5648 5646 5644 5641 5638 5634 5630 5625 5620 5614 5608 5602 5597 5591 5585
5585 5588 5592 5594 5597 5601 5604 5607 5610 5612 5615 5619 5623 5626 5629 5632 5634 5636 5638 5639 5640 5640 5639 5638 5636 5634 5631 5628 5624 5620 5615 5610 5604 5599 5593 5588 5582 5576
5575 5578 5581 5583 5586 5590 5594 5597 5600 5602 5605 5607 5612 5615 5618 5620 5622 5625 5626 5628 5629 5629 5628 5627 5626 5624 5621 5618 5614 5610 5606 5601 5595 5590 5584 5579 5574 5567
5566 5568 5571 5573 5576 5579 5583 5586 5589 5591 5594 5596 5600 5604 5606 5609 5611 5613 5615 5617 5618 5618 5617 5617 5615 5613 5611 5608 5605 5601 5596 5591 5586 5581 5576 5571 5565 5559
5556 5559 5561 5563 5566 5569 5572 5575 5578 5580 5583 5585 5589 5592 5595 5598 5601 5603 5604 5606 5607 5607 5607 5607 5606 5604 5601 5598 5595 5591 5587 5583 5578 5573 5568 5563 5557 5551
5547 5549 5551 5553 5556 5558 5561 5564 5567 5570 5572 5575 5578 5581 5585 5588 5590 5592 5593 5594 5596 5597 5596 5597 5596 5594 5592 5589 5586 5582 5578 5574 5570 5565 5560 5555 5550 5544
5538 5540 5542 5544 5546 5549 5551 5554 5557 5559 5562 5565 5568 5571 5574 5577 5579 5581 5582 5583 5585 5585 5586 5586 5585 5584 5583 5580 5577 5573 5570 5566 5562 5558 5553 5548 5543 5537
5529 5531 5534 5535 5537 5539 5542 5545 5547 5550 5552 5555 5558 5561 5563 5565 5568 5570 5571 5573 5574 5575 5575 5576 5575 5575 5573 5571 5568 5565 5562 5558 5554 5550 5546 5541 5536 5530
5521 5523 5525 5527 5528 5530 5533 5535 5538 5541 5543 5545 5548 5551 5553 5555 5557 5559 5561 5562 5564 5565 5566 5566 5566 5565 5564 5562 5559 5556 5553 5550 5547 5543 5539 5535 5529 5524
5513 5514 5516 5518 5519 5521 5523 5526 5529 5531 5534 5536 5539 5541 5543 5545 5547 5549 5551 5552 5554 5556 5557 5557 5557 5556 5555 5554 5551 5549 5546 5543 5540 5536 5532 5528 5523 5518
5505 5506 5508 5509 5510 5512 5514 5517 5520 5522 5524 5527 5530 5532 5534 5536 5538 5540 5542 5543 5545 5547 5548 5548 5548 5548 5547 5545 5543 5541 5539 5536 5533 5530 5526 5522 5517 5513
5497 5498 5499 5501 5502 5504 5506 5509 5511 5513 5516 5518 5521 5523 5526 5528 5529 5531 5533 5534 5536 5538 5539 5539 5540 5540 5539 5537 5535 5533 5531 5529 5527 5524 5520 5517 5512 5508
5490 5490 5491 5493 5494 5496 5498 5500 5503 5505 5507 5510 5513 5515 5517 5519 5521 5523 5524 5526 5527 5528 5530 5530 5531 5531 5531 5530 5528 5526 5524 5523 5521 5518 5515 5511 5507 5503
5483 5483 5484 5485 5487 5489 5490 5492 5494 5497 5500 5502 5505 5507 5509 5511 5513 5515 5516 5518 5519 5521 5521 5522 5522 5523 5523 5522 5521 5519 5518 5517 5515 5512 5509 5506 5502 5497
5475 5477 5478 5479 5480 5481 5483 5485 5487 5490 5492 5494 5497 5500 5502 5504 5506 5507 5509 5510 5512 5513 5514 5515 5515 5515 5515 5515 5514 5514 5512 5511 5509 5507 5504 5501 5497 5493
5468 5470 5471 5472 5473 5475 5476 5478 5481 5483 5485 5488 5490 5493 5495 5497 5499 5500 5502 5503 5505 5506 5508 5508 5509 5509 5509 5509 5509 5508 5507 5506 5504 5501 5499 5496 5493 5489
5461 5463 5464 5465 5466 5468 5470 5471 5474 5476 5478 5481 5484 5486 5488 5490 5492 5493 5495 5496 5498 5499 5501 5502 5502 5503 5504 5504 5504 5503 5502 5500 5498 5496 5494 5491 5488 5485
5454 5455 5457 5458 5460 5461 5463 5465 5467 5469 5472 5474 5477 5479 5481 5483 5485 5487 5488 5490 5492 5493 5495 5496 5497 5498 5499 5499 5498 5498 5496 5495 5494 5492 5490 5487 5484 5481
5447 5448 5450 5451 5453 5455 5456 5459 5461 5463 5465 5468 5470 5473 5475 5477 5479 5481 5482 5484 5486 5488 5489 5491 5492 5493 5493 5494 5494 5493 5493 5491 5490 5488 5486 5484 5481 5479
5440 5441 5443 5444 5446 5449 5451 5453 5455 5457 5460 5462 5465 5467 5469 5471 5473 5475 5477 5479 5481 5483 5485 5486 5488 5488 5489 5490 5490 5490 5489 5488 5486 5485 5483 5482 5479 5477
5433 5435 5436 5438 5441 5443 5445 5447 5450 5452 5455 5457 5460 5462 5464 5466 5468 5470 5472 5474 5476 5478 5480 5482 5483 5484 5485 5486 5487 5486 5486 5485 5484 5482 5481 5479 5477 5475